UPS3 OMDW-EDDK

Flight info

Callsign UPS3
Flight time N/A
Altitude 28000
Route ANVIX R401 GIDIS G783 RIGIL M628 MIGMA M550 MEVDO Y511 BOSOB DCT ITRUX Y511 PMA Z712 WEJ L677 CVO L617 TANSA UL617 SIT UL607 GENDO DCT BITLA DCT MAVAR DCT NEMEK DCT ADOMO DCT GIMIX DCT ERKIR DCT VEKIR DCT ETASA DCT ASKIK DCT DILUG T840 GULKO GULKO1K
Aircraft MD11/H-SDE1E2E3FGHIJ2J3J4J5M1RWXY/LB1D1

Departure

Time 2026-04-29 14:13
Airport Al Maktoum International Airport (OMDW)

Arrival

Time N/A
Airport Cologne Bonn Airport (EDDK)
Time Latitude Longitude Altitude Speed Heading
2026-04-29 13:37 24.88903 55.14468 132 ft 0 kts 121°
2026-04-29 13:52 24.88906 55.14463 132 ft 4 kts 121°
2026-04-29 13:52 24.88920 55.14438 132 ft 4 kts 121°
2026-04-29 13:53 24.88934 55.14412 131 ft 4 kts 121°
2026-04-29 13:53 24.88947 55.14390 128 ft 4 kts 116°
2026-04-29 13:53 24.88955 55.14366 131 ft 4 kts 83°
2026-04-29 13:53 24.88949 55.14347 131 ft 4 kts 33°
2026-04-29 13:54 24.88926 55.14335 127 ft 4 kts 15°
2026-04-29 13:54 24.88900 55.14326 131 ft 4 kts 24°
2026-04-29 13:54 24.88890 55.14322 131 ft 0 kts 32°
2026-04-29 13:59 24.88912 55.14337 130 ft 6 kts 32°
2026-04-29 14:00 24.88939 55.14355 131 ft 6 kts 32°
2026-04-29 14:00 24.88962 55.14371 132 ft 5 kts 32°
2026-04-29 14:00 24.88995 55.14394 129 ft 7 kts 32°
2026-04-29 14:00 24.89040 55.14425 126 ft 8 kts 32°
2026-04-29 14:01 24.89093 55.14462 126 ft 10 kts 32°
2026-04-29 14:01 24.89154 55.14505 125 ft 11 kts 32°
2026-04-29 14:01 24.89224 55.14554 126 ft 12 kts 32°
2026-04-29 14:01 24.89299 55.14600 131 ft 13 kts 28°
2026-04-29 14:02 24.89377 55.14648 130 ft 13 kts 34°
2026-04-29 14:02 24.89456 55.14701 127 ft 14 kts 30°
2026-04-29 14:02 24.89543 55.14757 129 ft 15 kts 30°
2026-04-29 14:02 24.89634 55.14816 127 ft 15 kts 31°
2026-04-29 14:03 24.89728 55.14879 136 ft 16 kts 31°
2026-04-29 14:03 24.89825 55.14944 130 ft 16 kts 31°
2026-04-29 14:03 24.89907 55.15006 126 ft 12 kts 56°
2026-04-29 14:03 24.89904 55.15075 132 ft 7 kts 110°
2026-04-29 14:04 24.89881 55.15113 128 ft 5 kts 123°
2026-04-29 14:04 24.89862 55.15147 133 ft 6 kts 122°
2026-04-29 14:04 24.89836 55.15193 128 ft 8 kts 120°
2026-04-29 14:04 24.89806 55.15252 126 ft 9 kts 122°
2026-04-29 14:05 24.89772 55.15313 129 ft 10 kts 120°
2026-04-29 14:05 24.89734 55.15381 136 ft 11 kts 122°
2026-04-29 14:05 24.89693 55.15453 136 ft 11 kts 122°
2026-04-29 14:05 24.89650 55.15531 137 ft 12 kts 121°
2026-04-29 14:06 24.89603 55.15614 138 ft 13 kts 121°
2026-04-29 14:06 24.89556 55.15700 140 ft 13 kts 121°
2026-04-29 14:06 24.89508 55.15790 141 ft 14 kts 120°
2026-04-29 14:06 24.89457 55.15880 142 ft 14 kts 121°
2026-04-29 14:07 24.89403 55.15976 143 ft 15 kts 122°
2026-04-29 14:07 24.89347 55.16075 145 ft 16 kts 121°
2026-04-29 14:07 24.89288 55.16181 146 ft 17 kts 121°
2026-04-29 14:07 24.89227 55.16293 147 ft 17 kts 122°
2026-04-29 14:08 24.89164 55.16407 149 ft 18 kts 121°
2026-04-29 14:08 24.89098 55.16527 150 ft 19 kts 121°
2026-04-29 14:08 24.89031 55.16651 152 ft 19 kts 121°
2026-04-29 14:08 24.88962 55.16775 153 ft 18 kts 120°
2026-04-29 14:09 24.88903 55.16880 155 ft 15 kts 121°
2026-04-29 14:09 24.88855 55.16967 156 ft 12 kts 121°
2026-04-29 14:09 24.88815 55.17039 157 ft 10 kts 121°
2026-04-29 14:09 24.88774 55.17113 158 ft 13 kts 121°
2026-04-29 14:10 24.88721 55.17210 159 ft 16 kts 121°
2026-04-29 14:10 24.88658 55.17326 161 ft 19 kts 121°
2026-04-29 14:10 24.88587 55.17454 162 ft 16 kts 115°
2026-04-29 14:10 24.88599 55.17519 163 ft 12 kts 51°
2026-04-29 14:11 24.88676 55.17576 163 ft 9 kts 32°
2026-04-29 14:11 24.88727 55.17606 162 ft 8 kts 26°
2026-04-29 14:11 24.88779 55.17617 162 ft 8 kts 358°
2026-04-29 14:11 24.88826 55.17600 162 ft 7 kts 329°
2026-04-29 14:12 24.88853 55.17570 162 ft 4 kts 303°
2026-04-29 14:12 24.88865 55.17547 162 ft 7 kts 301°
2026-04-29 14:12 24.89021 55.17265 158 ft 79 kts 301°
2026-04-29 14:12 24.89270 55.16815 150 ft 123 kts 301°
2026-04-29 14:13 24.89808 55.15845 138 ft 175 kts 301°
2026-04-29 14:13 24.90482 55.14618 302 ft 191 kts 302°
2026-04-29 14:13 24.91160 55.13342 667 ft 195 kts 300°
2026-04-29 14:13 24.91827 55.12016 1118 ft 197 kts 301°
2026-04-29 14:14 24.92506 55.10703 1704 ft 196 kts 301°
2026-04-29 14:14 24.93342 55.09512 2081 ft 201 kts 322°
2026-04-29 14:14 24.94634 55.08907 2352 ft 206 kts 354°
2026-04-29 14:14 24.96032 55.09166 2665 ft 212 kts 22°
2026-04-29 14:15 24.97327 55.09954 3082 ft 212 kts 30°
2026-04-29 14:15 24.98571 55.10832 3520 ft 212 kts 31°
2026-04-29 14:15 24.99811 55.11757 3853 ft 214 kts 29°
2026-04-29 14:15 25.01006 55.12732 4099 ft 223 kts 46°
2026-04-29 14:16 25.01733 55.14303 4225 ft 242 kts 78°
2026-04-29 14:16 25.01640 55.16195 4398 ft 255 kts 104°
2026-04-29 14:16 25.01104 55.18110 4555 ft 266 kts 107°
2026-04-29 14:16 25.00497 55.20089 4659 ft 275 kts 108°
2026-04-29 14:17 24.99874 55.22111 4789 ft 282 kts 107°
2026-04-29 14:17 24.99246 55.24164 4925 ft 288 kts 108°
2026-04-29 14:17 24.98605 55.26287 5044 ft 295 kts 107°
2026-04-29 14:17 24.97952 55.28466 5184 ft 302 kts 107°
2026-04-29 14:18 24.97288 55.30691 5305 ft 308 kts 107°
2026-04-29 14:18 24.96611 55.32955 5442 ft 313 kts 107°
2026-04-29 14:18 24.95935 55.35225 5565 ft 319 kts 107°
2026-04-29 14:18 24.95240 55.37557 5719 ft 321 kts 107°
2026-04-29 14:19 24.94535 55.39909 5933 ft 323 kts 107°
2026-04-29 14:19 24.93832 55.42266 6189 ft 324 kts 107°
2026-04-29 14:19 24.93131 55.44625 6417 ft 324 kts 107°
2026-04-29 14:19 24.92423 55.46999 6638 ft 326 kts 107°
2026-04-29 14:20 24.91720 55.49352 6877 ft 327 kts 107°
2026-04-29 14:20 24.91006 55.51749 7121 ft 329 kts 107°
2026-04-29 14:20 24.90294 55.54150 7357 ft 330 kts 107°
2026-04-29 14:20 24.89574 55.56564 7600 ft 331 kts 107°
2026-04-29 14:21 24.88861 55.58957 7831 ft 333 kts 107°
2026-04-29 14:21 24.88134 55.61389 8078 ft 334 kts 107°
2026-04-29 14:21 24.87401 55.63825 8315 ft 335 kts 107°
2026-04-29 14:21 24.86677 55.66236 8525 ft 336 kts 107°
2026-04-29 14:22 24.85946 55.68684 8755 ft 337 kts 107°
2026-04-29 14:22 24.85206 55.71147 8971 ft 339 kts 107°
2026-04-29 14:22 24.84465 55.73621 9188 ft 339 kts 108°
2026-04-29 14:22 24.83723 55.76091 9381 ft 340 kts 108°
2026-04-29 14:23 24.82984 55.78543 9544 ft 341 kts 108°
2026-04-29 14:23 24.82231 55.81026 9752 ft 340 kts 108°
2026-04-29 14:23 24.81445 55.83463 10121 ft 334 kts 112°
2026-04-29 14:23 24.80466 55.85764 10490 ft 328 kts 120°
2026-04-29 14:24 24.79212 55.87852 10606 ft 334 kts 130°
2026-04-29 14:24 24.77584 55.89755 10730 ft 346 kts 140°
2026-04-29 14:24 24.75618 55.91366 10871 ft 358 kts 150°
2026-04-29 14:24 24.73346 55.92614 11015 ft 371 kts 161°
2026-04-29 14:25 24.70867 55.93396 11296 ft 377 kts 172°
2026-04-29 14:25 24.68251 55.93690 11833 ft 377 kts 181°
2026-04-29 14:25 24.65629 55.93679 12393 ft 377 kts 184°
2026-04-29 14:25 24.63000 55.93571 12971 ft 378 kts 185°
2026-04-29 14:26 24.60360 55.93434 13481 ft 380 kts 186°
2026-04-29 14:26 24.57724 55.93138 14002 ft 380 kts 192°
2026-04-29 14:26 24.55173 55.92518 14479 ft 380 kts 200°
2026-04-29 14:26 24.52707 55.91467 14983 ft 379 kts 208°
2026-04-29 14:27 24.50431 55.90000 15450 ft 379 kts 218°
2026-04-29 14:27 24.48400 55.88153 15931 ft 378 kts 226°
2026-04-29 14:27 24.46651 55.85994 16382 ft 379 kts 233°
2026-04-29 14:28 24.43590 55.81289 17251 ft 382 kts 236°
2026-04-29 14:28 24.42080 55.78879 17676 ft 384 kts 236°
2026-04-29 14:28 24.40552 55.76469 18112 ft 385 kts 236°
2026-04-29 14:28 24.39000 55.74049 18507 ft 388 kts 236°
2026-04-29 14:29 24.37322 55.71747 18868 ft 390 kts 225°
2026-04-29 14:29 24.35139 55.69950 19254 ft 396 kts 212°
2026-04-29 14:29 24.32682 55.68602 19566 ft 401 kts 207°
2026-04-29 14:29 24.30100 55.67397 19937 ft 403 kts 206°
2026-04-29 14:30 24.27497 55.66211 20271 ft 406 kts 206°
2026-04-29 14:30 24.24888 55.64992 20628 ft 407 kts 206°
2026-04-29 14:30 24.22333 55.63714 20940 ft 408 kts 212°
2026-04-29 14:30 24.20066 55.61882 21274 ft 404 kts 227°
2026-04-29 14:31 24.18370 55.59445 21619 ft 402 kts 243°
2026-04-29 14:31 24.17356 55.56595 21894 ft 403 kts 256°
2026-04-29 14:31 24.16852 55.53600 22184 ft 406 kts 262°
2026-04-29 14:31 24.16519 55.50513 22524 ft 408 kts 263°
2026-04-29 14:32 24.16206 55.47411 22869 ft 409 kts 263°
2026-04-29 14:32 24.15866 55.44311 23201 ft 410 kts 262°
2026-04-29 14:32 24.15491 55.41206 23489 ft 412 kts 262°
2026-04-29 14:32 24.15086 55.38091 23790 ft 414 kts 261°
2026-04-29 14:33 24.14667 55.35005 24106 ft 415 kts 261°
2026-04-29 14:33 24.14231 55.31866 24387 ft 417 kts 261°
2026-04-29 14:33 24.13791 55.28724 24677 ft 419 kts 261°
2026-04-29 14:33 24.13345 55.25564 24984 ft 420 kts 261°
2026-04-29 14:34 24.12898 55.22394 25253 ft 421 kts 261°
2026-04-29 14:34 24.12453 55.19247 25504 ft 423 kts 261°
2026-04-29 14:34 24.12000 55.16043 25752 ft 425 kts 261°
2026-04-29 14:34 24.11546 55.12835 26025 ft 426 kts 261°
2026-04-29 14:35 24.11090 55.09616 26265 ft 428 kts 261°
2026-04-29 14:35 24.10637 55.06420 26521 ft 429 kts 261°
2026-04-29 14:35 24.10176 55.03178 26741 ft 431 kts 261°
2026-04-29 14:35 24.09712 54.99921 26968 ft 433 kts 261°
2026-04-29 14:36 24.09247 54.96662 27183 ft 434 kts 261°
2026-04-29 14:36 24.08778 54.93386 27402 ft 436 kts 261°
2026-04-29 14:36 24.08308 54.90098 27648 ft 437 kts 261°
2026-04-29 14:36 24.07835 54.86798 27728 ft 441 kts 261°
2026-04-29 14:37 24.07361 54.83491 27753 ft 446 kts 261°
2026-04-29 14:37 24.06875 54.80110 27752 ft 452 kts 261°
2026-04-29 14:37 24.06381 54.76689 27750 ft 457 kts 261°
2026-04-29 14:37 24.05877 54.73223 27749 ft 462 kts 261°
2026-04-29 14:38 24.05366 54.69724 27751 ft 467 kts 261°
2026-04-29 14:38 24.04851 54.66233 27748 ft 471 kts 260°
2026-04-29 14:38 24.04326 54.62687 27750 ft 471 kts 260°
2026-04-29 14:38 24.03805 54.59148 27747 ft 470 kts 261°
2026-04-29 14:39 24.03293 54.55658 27747 ft 469 kts 261°
2026-04-29 14:39 24.02776 54.52118 27749 ft 470 kts 261°
2026-04-29 14:39 24.02260 54.48584 27747 ft 470 kts 261°
2026-04-29 14:39 24.01743 54.45051 27748 ft 470 kts 261°
2026-04-29 14:40 24.01231 54.41556 27747 ft 471 kts 261°
2026-04-29 14:40 24.00713 54.38021 27749 ft 471 kts 261°
2026-04-29 14:40 24.00194 54.34483 27749 ft 471 kts 261°
2026-04-29 14:40 23.99672 54.30937 27747 ft 471 kts 260°
2026-04-29 14:41 23.99150 54.27397 27747 ft 472 kts 260°
2026-04-29 14:41 23.98625 54.23841 27749 ft 472 kts 260°
2026-04-29 14:41 23.98100 54.20284 27748 ft 472 kts 260°
2026-04-29 14:41 23.97582 54.16783 27748 ft 472 kts 260°
2026-04-29 14:42 23.97056 54.13239 27749 ft 471 kts 260°
2026-04-29 14:42 23.96530 54.09691 27748 ft 471 kts 260°
2026-04-29 14:42 23.96004 54.06149 27808 ft 472 kts 260°
2026-04-29 14:42 23.95481 54.02638 28029 ft 472 kts 260°
2026-04-29 14:43 23.94950 53.99080 28259 ft 472 kts 260°
2026-04-29 14:43 23.94421 53.95534 28475 ft 472 kts 260°
2026-04-29 14:43 23.93890 53.91988 28680 ft 471 kts 260°